Precipitable_Water
1.84 1.78 1.79 1.71 1.65 1.58 1.55 1.51 1.47 1.43 1.33 1.27 1.25 1.29 1.35 1.37 1.37 1.37 1.40 1.39 1.45 1.46 1.45 1.42 1.44 1.45 1.42 1.42 1.39 1.42 1.43 1.40 1.42 1.43 1.43 1.42 1.43 1.45 1.53 1.54 1.51 1.48 1.49 1.51 1.57 1.57 1.53 1.50 1.50 1.53 1.56 1.51 1.50 1.46 1.44 1.43 1.44 1.41 1.42 1.42 1.37 1.39 1.34 1.25 1.09 1.07 1.23 1.36 1.29 1.31 1.39 1.32 1.34 1.40 1.34 1.31 1.33 1.33 1.35 1.37 1.35 1.27 1.28 1.49 1.57
1.76 1.77 1.82 1.78 1.69 1.64 1.59 1.57 1.52 1.47 1.37 1.31 1.24 1.26 1.31 1.34 1.36 1.34 1.29 1.33 1.38 1.39 1.41 1.42 1.42 1.42 1.39 1.38 1.39 1.40 1.42 1.38 1.39 1.39 1.38 1.37 1.39 1.44 1.41 1.40 1.42 1.43 1.45 1.46 1.48 1.50 1.50 1.45 1.43 1.45 1.49 1.44 1.42 1.39 1.40 1.39 1.38 1.36 1.37 1.35 1.33 1.35 1.44 1.27 1.18 1.07 1.02 1.23 1.26 1.36 1.30 1.41 1.27 1.41 1.28 1.21 1.24 1.30 1.29 1.31 1.38 1.32 1.31 1.35 1.55
1.75 1.71 1.71 1.68 1.65 1.67 1.65 1.57 1.53 1.46 1.39 1.34 1.28 1.23 1.25 1.29 1.34 1.29 1.23 1.25 1.31 1.33 1.35 1.36 1.39 1.40 1.36 1.35 1.38 1.37 1.39 1.38 1.36 1.36 1.36 1.35 1.33 1.36 1.41 1.41 1.40 1.38 1.37 1.38 1.41 1.46 1.45 1.42 1.40 1.41 1.44 1.40 1.38 1.34 1.35 1.32 1.32 1.29 1.29 1.33 1.33 1.33 1.36 1.36 1.21 1.06 1.03 1.09 1.23 1.20 1.27 1.32 1.23 1.25 1.31 1.29 1.27 1.36 1.27 1.27 1.22 1.31 1.32 1.34 1.50
1.81 1.76 1.73 1.69 1.64 1.62 1.61 1.59 1.54 1.50 1.41 1.37 1.32 1.29 1.25 1.26 1.28 1.25 1.23 1.20 1.20 1.26 1.28 1.30 1.32 1.33 1.32 1.30 1.32 1.34 1.34 1.35 1.35 1.34 1.34 1.33 1.31 1.31 1.32 1.35 1.37 1.35 1.34 1.36 1.41 1.44 1.41 1.41 1.42 1.43 1.44 1.39 1.36 1.35 1.34 1.31 1.25 1.23 1.21 1.23 1.22 1.21 1.24 1.27 1.31 1.17 1.11 1.01 1.14 1.17 1.21 1.17 1.21 1.27 1.28 1.28 1.27 1.29 1.27 1.25 1.30 1.29 1.19 1.32 1.47
1.84 1.80 1.78 1.74 1.70 1.63 1.58 1.57 1.53 1.50 1.46 1.43 1.36 1.35 1.31 1.27 1.26 1.20 1.20 1.17 1.16 1.19 1.22 1.23 1.23 1.25 1.23 1.21 1.24 1.27 1.29 1.33 1.31 1.31 1.33 1.35 1.32 1.30 1.28 1.25 1.23 1.21 1.21 1.23 1.25 1.28 1.32 1.34 1.40 1.43 1.42 1.33 1.33 1.32 1.34 1.31 1.30 1.24 1.22 1.24 1.22 1.25 1.26 1.25 1.26 1.25 1.15 1.05 1.08 1.19 1.23 1.20 1.26 1.27 1.31 1.18 1.23 1.29 1.37 1.30 1.22 1.24 1.24 1.19 1.38
1.84 1.77 1.72 1.69 1.72 1.67 1.61 1.58 1.54 1.52 1.51 1.49 1.44 1.40 1.37 1.31 1.27 1.22 1.16 1.13 1.12 1.13 1.16 1.18 1.15 1.15 1.17 1.16 1.18 1.23 1.26 1.27 1.27 1.26 1.27 1.30 1.30 1.27 1.21 1.16 1.16 1.17 1.17 1.17 1.17 1.19 1.19 1.22 1.28 1.32 1.31 1.29 1.31 1.34 1.35 1.34 1.35 1.31 1.23 1.22 1.24 1.26 1.23 1.23 1.22 1.17 1.12 1.08 1.06 1.04 1.16 1.15 1.16 1.22 1.26 1.23 1.13 1.12 1.17 1.31 1.34 1.39 1.25 1.18 1.25
1.89 1.81 1.77 1.72 1.72 1.68 1.63 1.60 1.60 1.58 1.58 1.55 1.54 1.49 1.42 1.37 1.31 1.25 1.21 1.14 1.10 1.08 1.09 1.10 1.11 1.10 1.12 1.11 1.10 1.14 1.19 1.20 1.20 1.20 1.19 1.22 1.25 1.24 1.17 1.13 1.13 1.15 1.15 1.14 1.15 1.16 1.17 1.18 1.19 1.22 1.24 1.28 1.29 1.30 1.32 1.32 1.32 1.30 1.29 1.28 1.26 1.19 1.17 1.18 1.18 1.16 1.13 1.09 1.08 1.09 1.09 1.20 1.21 1.12 1.27 1.30 1.19 1.11 1.05 1.10 1.11 1.33 1.36 1.24 1.14
1.90 1.84 1.78 1.73 1.68 1.66 1.65 1.66 1.66 1.65 1.64 1.64 1.61 1.56 1.53 1.48 1.41 1.36 1.32 1.22 1.15 1.09 1.06 1.06 1.07 1.04 1.02 1.04 1.06 1.09 1.12 1.14 1.14 1.14 1.14 1.14 1.15 1.16 1.13 1.07 1.08 1.11 1.11 1.12 1.11 1.11 1.12 1.12 1.13 1.17 1.22 1.27 1.29 1.30 1.31 1.28 1.32 1.30 1.34 1.32 1.28 1.21 1.13 1.11 1.12 1.12 1.10 1.07 1.04 1.04 1.09 1.09 1.13 1.15 1.19 1.22 1.16 1.22 1.35 1.31 1.10 1.09 1.18 1.30 1.30
1.92 1.88 1.86 1.80 1.74 1.72 1.71 1.68 1.69 1.70 1.68 1.65 1.63 1.60 1.58 1.56 1.54 1.49 1.42 1.33 1.27 1.21 1.15 1.10 1.06 1.03 1.00 0.98 0.97 1.01 1.03 1.06 1.08 1.09 1.07 1.05 1.06 1.05 1.06 1.04 1.01 1.01 1.05 1.08 1.11 1.10 1.06 1.03 1.04 1.06 1.11 1.17 1.22 1.22 1.23 1.32 1.31 1.28 1.34 1.36 1.30 1.25 1.20 1.12 1.09 1.07 1.05 1.01 0.99 1.04 1.03 1.04 1.09 1.09 1.08 1.11 1.10 1.10 1.24 1.23 1.13 1.16 1.26 1.25 1.36
1.99 1.94 1.89 1.87 1.86 1.83 1.78 1.74 1.68 1.67 1.68 1.65 1.64 1.63 1.62 1.61 1.59 1.55 1.50 1.46 1.40 1.34 1.27 1.20 1.12 1.06 1.01 0.99 0.96 0.94 0.94 0.96 1.00 1.00 1.01 1.00 1.00 0.96 0.98 1.01 1.01 1.00 1.00 1.01 1.02 1.04 1.05 1.06 1.05 1.05 1.05 1.05 1.06 1.05 1.05 1.06 1.10 1.14 1.21 1.30 1.33 1.30 1.23 1.16 1.11 1.08 1.06 1.00 0.97 0.98 0.98 0.99 1.05 1.15 1.16 1.20 1.24 1.29 1.29 1.35 1.29 1.30 1.26 1.20 1.27
1.98 1.98 1.94 1.94 1.94 1.94 1.88 1.83 1.80 1.73 1.71 1.69 1.67 1.66 1.63 1.62 1.60 1.58 1.56 1.53 1.49 1.45 1.39 1.29 1.20 1.13 1.06 1.02 0.98 0.94 0.91 0.90 0.90 0.89 0.87 0.87 0.90 0.97 0.96 0.96 1.00 1.00 0.97 0.97 0.96 0.96 0.99 1.03 1.04 1.05 1.04 0.99 0.98 0.97 0.97 0.97 0.98 1.01 1.06 1.13 1.21 1.26 1.24 1.22 1.18 1.13 1.09 1.05 1.06 1.02 0.95 0.93 0.95 0.98 0.98 1.00 1.12 1.21 1.23 1.29 1.26 1.25 1.19 1.09 1.00
1.97 2.00 2.01 2.02 1.99 1.97 1.96 1.92 1.86 1.80 1.75 1.70 1.68 1.69 1.68 1.64 1.60 1.58 1.57 1.54 1.54 1.53 1.46 1.39 1.33 1.25 1.17 1.09 1.03 0.99 0.95 0.92 0.88 0.84 0.81 0.80 0.82 0.84 0.90 0.94 0.98 1.00 1.00 0.97 0.97 0.97 0.97 0.97 0.98 1.00 1.05 1.06 1.05 1.07 1.01 0.94 0.91 0.92 0.95 1.02 1.09 1.15 1.19 1.16 1.13 1.14 1.15 1.11 1.08 1.04 1.01 0.96 0.99 1.03 1.02 1.02 1.08 1.17 1.22 1.20 1.17 1.13 1.14 1.14 1.16
1.98 2.01 2.05 2.02 2.04 2.05 2.00 1.93 1.87 1.83 1.80 1.78 1.76 1.73 1.70 1.65 1.61 1.58 1.55 1.57 1.57 1.54 1.48 1.45 1.41 1.38 1.30 1.19 1.09 1.04 0.99 0.96 0.91 0.86 0.82 0.80 0.80 0.82 0.83 0.87 0.91 0.95 0.98 1.00 0.99 0.97 0.95 0.95 0.93 0.94 0.96 1.01 1.01 1.01 1.05 1.04 0.96 0.91 0.92 0.96 1.02 1.07 1.09 1.13 1.16 1.12 1.13 1.12 1.09 1.09 1.09 1.07 1.00 0.98 1.05 1.06 1.10 0.95 0.99 1.01 1.08 1.13 1.14 1.13 1.14
1.96 1.99 2.04 2.05 2.12 2.13 2.09 2.01 1.93 1.86 1.83 1.82 1.81 1.76 1.71 1.66 1.64 1.64 1.62 1.62 1.58 1.52 1.51 1.48 1.46 1.43 1.39 1.32 1.24 1.18 1.11 1.04 0.97 0.90 0.84 0.82 0.81 0.82 0.84 0.85 0.85 0.87 0.91 0.94 0.96 0.96 0.97 0.93 0.90 0.88 0.91 0.92 0.95 0.98 0.99 0.98 0.98 1.00 0.98 0.97 0.99 1.02 1.05 1.08 1.09 1.10 1.12 1.08 1.05 0.98 1.06 1.18 1.08 1.07 1.12 1.11 1.02 0.95 0.94 0.95 1.04 1.07 1.08 1.09 1.19
1.90 1.94 1.99 2.05 2.08 2.10 2.10 2.10 1.99 1.94 1.89 1.86 1.82 1.76 1.72 1.70 1.69 1.68 1.64 1.60 1.57 1.53 1.50 1.49 1.49 1.47 1.44 1.41 1.35 1.28 1.24 1.19 1.12 1.03 0.95 0.89 0.86 0.85 0.87 0.87 0.86 0.85 0.87 0.89 0.91 0.91 0.93 0.95 0.94 0.91 0.91 0.92 0.96 0.98 0.99 1.01 1.01 0.99 1.02 1.07 1.07 1.05 1.09 1.10 1.08 1.07 1.09 1.10 1.08 1.04 1.06 1.13 1.18 1.21 1.20 1.19 1.13 1.14 1.16 1.12 1.12 1.11 1.10 1.14 1.12
1.80 1.86 1.92 2.00 2.03 2.06 2.06 2.06 2.04 2.00 1.96 1.92 1.87 1.81 1.79 1.75 1.70 1.71 1.69 1.64 1.63 1.61 1.59 1.56 1.51 1.48 1.48 1.47 1.42 1.34 1.31 1.28 1.23 1.17 1.12 1.08 1.06 1.04 1.01 0.97 0.93 0.91 0.90 0.91 0.93 0.96 0.97 0.97 0.95 0.94 0.93 0.93 0.94 0.96 0.98 1.03 1.05 1.04 1.04 1.06 1.09 1.14 1.17 1.23 1.24 1.24 1.22 1.21 1.18 1.16 1.17 1.19 1.23 1.25 1.29 1.29 1.30 1.33 1.30 1.27 1.25 1.17 1.07 0.97 0.88
1.57 1.70 1.81 1.92 1.99 2.04 2.05 2.06 2.06 2.02 2.02 1.94 1.94 1.89 1.85 1.81 1.81 1.82 1.74 1.69 1.63 1.58 1.56 1.56 1.57 1.53 1.51 1.51 1.46 1.40 1.36 1.36 1.31 1.26 1.22 1.21 1.20 1.18 1.15 1.11 1.08 1.04 1.01 1.01 1.03 1.04 1.05 1.05 1.04 1.01 0.99 0.97 0.98 0.98 0.99 1.00 0.99 0.98 1.00 1.05 1.12 1.14 1.15 1.26 1.30 1.27 1.26 1.26 1.28 1.28 1.26 1.23 1.22 1.21 1.20 1.20 1.17 1.20 1.19 1.08 0.97 1.03 1.01 0.95 0.95
1.39 1.47 1.56 1.73 1.91 1.99 2.05 2.08 2.07 2.07 2.04 1.98 1.98 1.98 1.97 1.97 1.91 1.94 1.83 1.75 1.67 1.64 1.63 1.60 1.61 1.59 1.55 1.51 1.49 1.43 1.40 1.42 1.39 1.34 1.30 1.29 1.28 1.25 1.23 1.19 1.16 1.14 1.13 1.13 1.13 1.12 1.11 1.10 1.11 1.10 1.07 1.03 1.03 1.04 1.05 1.07 1.02 1.00 0.99 0.99 1.00 1.03 1.08 1.17 1.22 1.32 1.32 1.35 1.32 1.27 1.26 1.25 1.24 1.22 1.20 1.17 1.15 1.18 1.11 0.92 0.94 1.01 0.98 1.00 0.96
1.26 1.36 1.45 1.53 1.63 1.81 1.95 2.03 2.05 2.08 2.05 2.06 2.05 2.03 2.05 2.09 2.10 2.05 1.95 1.92 1.81 1.80 1.71 1.65 1.63 1.62 1.59 1.55 1.52 1.46 1.42 1.44 1.43 1.38 1.35 1.34 1.33 1.32 1.29 1.25 1.20 1.18 1.17 1.16 1.19 1.18 1.16 1.15 1.12 1.10 1.09 1.08 1.08 1.08 1.09 1.10 1.07 1.05 1.04 1.01 0.97 0.97 1.06 1.19 1.19 1.17 1.29 1.36 1.36 1.36 1.33 1.30 1.28 1.26 1.23 1.19 1.17 1.16 1.15 1.08 1.07 1.01 0.94 0.94 0.97
1.14 1.23 1.36 1.46 1.52 1.58 1.65 1.78 1.93 2.03 2.04 2.08 2.10 2.14 2.16 2.07 2.09 2.09 2.08 2.00 1.89 1.85 1.85 1.77 1.65 1.62 1.63 1.60 1.55 1.50 1.44 1.44 1.45 1.39 1.38 1.37 1.36 1.37 1.36 1.28 1.19 1.18 1.21 1.19 1.16 1.19 1.20 1.18 1.16 1.10 1.07 1.05 1.04 1.07 1.09 1.10 1.08 1.09 1.10 1.04 0.99 0.96 1.12 1.19 1.21 1.22 1.24 1.29 1.35 1.45 1.43 1.42 1.40 1.34 1.27 1.24 1.20 1.16 1.13 1.13 1.11 1.06 0.99 1.00 1.02
1.11 1.14 1.18 1.27 1.38 1.49 1.59 1.60 1.61 1.72 1.87 2.00 2.10 2.15 2.10 2.07 2.06 1.97 1.96 1.94 1.91 1.87 1.85 1.79 1.72 1.68 1.68 1.66 1.62 1.58 1.53 1.47 1.47 1.42 1.40 1.40 1.40 1.39 1.37 1.32 1.28 1.26 1.25 1.24 1.22 1.17 1.17 1.17 1.16 1.14 1.08 1.05 1.04 1.04 1.07 1.08 1.09 1.10 1.12 1.07 1.05 1.12 1.26 1.23 1.26 1.30 1.27 1.26 1.25 1.26 1.29 1.35 1.36 1.37 1.36 1.37 1.35 1.32 1.23 1.16 1.17 1.14 1.09 1.05 1.05
1.02 1.08 1.11 1.14 1.20 1.29 1.42 1.55 1.61 1.62 1.65 1.71 1.78 1.90 2.02 2.08 2.04 2.03 2.04 2.00 1.95 1.91 1.86 1.75 1.72 1.70 1.72 1.70 1.66 1.63 1.62 1.55 1.51 1.47 1.43 1.42 1.42 1.42 1.39 1.34 1.34 1.34 1.30 1.25 1.22 1.19 1.18 1.18 1.17 1.18 1.15 1.11 1.09 1.09 1.10 1.08 1.07 1.08 1.07 1.10 1.14 1.17 1.19 1.26 1.29 1.29 1.28 1.26 1.24 1.26 1.28 1.28 1.28 1.27 1.25 1.24 1.25 1.32 1.37 1.35 1.27 1.23 1.24 1.20 1.15
0.91 0.98 1.04 1.08 1.11 1.18 1.25 1.34 1.45 1.56 1.59 1.63 1.65 1.66 1.78 1.90 2.01 2.04 2.01 1.97 1.94 1.93 1.90 1.82 1.71 1.65 1.65 1.69 1.71 1.68 1.67 1.65 1.57 1.53 1.47 1.45 1.45 1.44 1.43 1.40 1.41 1.42 1.33 1.24 1.21 1.21 1.25 1.26 1.27 1.26 1.23 1.20 1.17 1.16 1.15 1.13 1.09 1.05 1.04 1.08 1.10 1.14 1.20 1.23 1.23 1.22 1.19 1.17 1.17 1.16 1.18 1.19 1.17 1.15 1.14 1.13 1.17 1.21 1.27 1.31 1.36 1.40 1.36 1.32 1.32
0.79 0.86 0.92 0.99 1.02 1.07 1.17 1.24 1.32 1.40 1.49 1.56 1.59 1.59 1.67 1.78 1.86 1.97 2.02 1.99 1.93 1.91 1.97 1.95 1.87 1.78 1.71 1.68 1.69 1.70 1.70 1.69 1.66 1.59 1.54 1.50 1.49 1.48 1.47 1.45 1.46 1.44 1.41 1.33 1.31 1.31 1.31 1.33 1.36 1.36 1.32 1.28 1.25 1.23 1.21 1.18 1.12 1.07 1.07 1.07 1.08 1.13 1.18 1.20 1.19 1.17 1.15 1.13 1.12 1.10 1.10 1.13 1.13 1.09 1.05 1.08 1.15 1.21 1.28 1.30 1.34 1.36 1.38 1.38 1.41
0.67 0.74 0.82 0.89 0.94 0.99 1.05 1.13 1.20 1.29 1.37 1.43 1.48 1.52 1.57 1.68 1.74 1.85 1.90 1.95 1.98 1.95 1.98 2.00 1.91 1.83 1.79 1.74 1.73 1.77 1.77 1.77 1.73 1.69 1.62 1.56 1.54 1.53 1.52 1.50 1.49 1.50 1.45 1.40 1.41 1.41 1.41 1.43 1.44 1.42 1.39 1.36 1.33 1.30 1.26 1.21 1.17 1.13 1.10 1.09 1.12 1.15 1.17 1.18 1.17 1.18 1.13 1.09 1.08 1.10 1.11 1.12 1.12 1.14 1.19 1.20 1.23 1.29 1.27 1.29 1.36 1.39 1.43 1.45 1.47
0.61 0.64 0.71 0.79 0.86 0.92 0.94 0.99 1.08 1.16 1.26 1.35 1.38 1.43 1.50 1.57 1.62 1.74 1.84 1.88 1.92 1.97 2.01 2.04 2.00 1.93 1.85 1.82 1.78 1.80 1.86 1.85 1.83 1.82 1.74 1.66 1.61 1.59 1.57 1.55 1.53 1.55 1.54 1.50 1.51 1.54 1.55 1.54 1.51 1.47 1.44 1.41 1.37 1.31 1.27 1.25 1.22 1.19 1.18 1.20 1.21 1.20 1.21 1.20 1.19 1.16 1.11 1.11 1.12 1.10 1.14 1.20 1.22 1.26 1.28 1.28 1.25 1.23 1.27 1.28 1.29 1.32 1.38 1.36 1.32
0.61 0.62 0.63 0.69 0.77 0.83 0.86 0.90 0.97 1.03 1.09 1.20 1.29 1.34 1.41 1.47 1.53 1.59 1.71 1.84 1.89 1.92 1.98 2.04 2.01 1.96 1.90 1.88 1.87 1.85 1.86 1.90 1.91 1.85 1.94 1.84 1.73 1.69 1.66 1.60 1.59 1.62 1.62 1.58 1.59 1.62 1.63 1.62 1.59 1.58 1.56 1.53 1.48 1.44 1.39 1.37 1.34 1.32 1.32 1.33 1.33 1.33 1.33 1.31 1.29 1.26 1.23 1.21 1.20 1.19 1.21 1.26 1.32 1.34 1.29 1.29 1.26 1.29 1.35 1.35 1.29 1.27 1.30 1.30 1.24
0.58 0.61 0.64 0.66 0.68 0.74 0.78 0.84 0.89 0.94 1.01 1.12 1.20 1.27 1.33 1.40 1.45 1.49 1.56 1.65 1.79 1.90 1.96 2.01 2.05 2.10 2.01 1.97 1.99 1.95 1.90 1.81 1.77 1.84 1.93 1.91 1.91 1.82 1.74 1.69 1.67 1.68 1.71 1.77 1.77 1.76 1.71 1.70 1.69 1.66 1.62 1.55 1.49 1.45 1.42 1.43 1.44 1.45 1.44 1.44 1.42 1.43 1.44 1.45 1.45 1.43 1.41 1.41 1.36 1.34 1.30 1.30 1.25 1.27 1.31 1.31 1.29 1.32 1.37 1.33 1.28 1.25 1.28 1.27 1.17
0.60 0.60 0.63 0.66 0.65 0.69 0.73 0.75 0.83 0.90 0.96 1.05 1.15 1.23 1.26 1.31 1.36 1.42 1.53 1.62 1.68 1.75 1.89 2.04 2.11 2.11 2.03 2.01 1.99 1.93 1.90 1.82 1.78 1.93 2.05 2.07 2.01 2.00 1.88 1.80 1.84 1.88 1.88 1.93 1.91 1.83 1.79 1.75 1.69 1.64 1.60 1.53 1.49 1.47 1.47 1.49 1.51 1.54 1.53 1.53 1.51 1.50 1.49 1.47 1.41 1.40 1.43 1.42 1.34 1.31 1.28 1.29 1.30 1.33 1.32 1.26 1.24 1.26 1.35 1.33 1.37 1.31 1.27 1.26 1.19
0.56 0.58 0.60 0.61 0.64 0.67 0.69 0.73 0.77 0.84 0.89 0.95 1.02 1.09 1.24 1.32 1.33 1.29 1.31 1.46 1.57 1.64 1.72 1.75 1.96 2.15 2.13 2.11 2.11 2.03 2.00 2.06 2.06 2.05 2.13 2.18 2.14 2.11 2.06 2.05 2.03 1.95 1.94 1.93 1.87 1.76 1.73 1.73 1.72 1.70 1.70 1.71 1.67 1.60 1.54 1.54 1.53 1.53 1.56 1.57 1.56 1.54 1.53 1.52 1.51 1.52 1.54 1.47 1.42 1.35 1.31 1.31 1.29 1.29 1.30 1.29 1.31 1.33 1.40 1.39 1.35 1.37 1.30 1.23 1.18
0.52 0.51 0.55 0.58 0.62 0.66 0.67 0.67 0.71 0.76 0.84 0.90 0.96 1.00 1.08 1.21 1.29 1.29 1.29 1.32 1.38 1.44 1.51 1.64 1.76 1.87 1.99 1.98 2.09 2.17 2.11 2.07 2.03 2.04 2.07 2.15 2.23 2.18 2.12 2.09 2.04 2.03 2.04 2.02 1.91 1.76 1.69 1.68 1.65 1.67 1.69 1.72 1.71 1.69 1.68 1.64 1.60 1.59 1.59 1.63 1.61 1.57 1.55 1.56 1.58 1.61 1.59 1.55 1.50 1.45 1.39 1.33 1.28 1.29 1.29 1.31 1.30 1.31 1.36 1.42 1.41 1.38 1.35 1.25 1.16
0.49 0.49 0.52 0.57 0.61 0.63 0.65 0.67 0.69 0.71 0.75 0.84 0.90 0.94 1.00 1.06 1.11 1.23 1.28 1.30 1.35 1.41 1.46 1.54 1.65 1.75 1.81 1.85 1.85 1.89 1.98 2.00 2.02 2.05 2.08 2.13 2.18 2.16 2.16 2.18 2.09 2.09 2.13 2.10 1.89 1.77 1.73 1.72 1.73 1.70 1.70 1.68 1.68 1.70 1.73 1.73 1.73 1.70 1.68 1.65 1.64 1.69 1.66 1.61 1.66 1.67 1.64 1.60 1.57 1.53 1.45 1.37 1.33 1.33 1.32 1.33 1.34 1.33 1.35 1.31 1.31 1.29 1.27 1.30 1.20
0.51 0.48 0.49 0.53 0.58 0.60 0.61 0.64 0.67 0.69 0.69 0.74 0.83 0.92 0.96 1.01 1.03 1.05 1.20 1.32 1.33 1.35 1.40 1.46 1.55 1.64 1.73 1.78 1.81 1.77 1.78 1.85 1.89 1.94 2.00 2.05 2.10 2.12 2.15 2.18 2.16 2.10 2.17 2.06 1.94 1.88 1.84 1.77 1.73 1.75 1.76 1.73 1.75 1.76 1.78 1.80 1.81 1.80 1.78 1.73 1.71 1.75 1.76 1.79 1.81 1.74 1.69 1.66 1.64 1.60 1.58 1.51 1.44 1.40 1.38 1.36 1.33 1.23 1.28 1.28 1.29 1.30 1.28 1.22 1.19
0.52 0.51 0.49 0.51 0.54 0.57 0.60 0.62 0.64 0.66 0.69 0.73 0.80 0.89 0.93 0.98 1.05 1.11 1.08 1.07 1.12 1.22 1.30 1.33 1.37 1.47 1.58 1.68 1.74 1.78 1.80 1.83 1.85 1.84 1.86 1.92 1.98 2.04 2.08 2.11 2.13 2.15 2.13 2.03 1.98 1.92 1.92 1.87 1.83 1.82 1.84 1.86 1.87 1.87 1.86 1.86 1.86 1.85 1.84 1.83 1.84 1.87 1.90 1.94 1.88 1.80 1.77 1.70 1.64 1.62 1.61 1.58 1.55 1.48 1.42 1.38 1.36 1.32 1.29 1.30 1.31 1.29 1.27 1.19 1.14
0.57 0.57 0.57 0.57 0.57 0.58 0.62 0.63 0.65 0.67 0.69 0.71 0.77 0.86 0.93 0.99 1.06 1.12 1.14 1.09 1.05 1.04 1.10 1.23 1.34 1.40 1.44 1.52 1.61 1.69 1.76 1.82 1.83 1.85 1.87 1.90 1.95 2.01 2.05 2.00 1.93 1.95 1.99 2.00 1.97 1.94 1.91 1.89 1.87 1.89 1.90 1.90 1.93 1.93 1.90 1.90 1.89 1.87 1.86 1.87 1.89 1.91 1.93 1.93 1.89 1.87 1.85 1.82 1.73 1.66 1.63 1.59 1.54 1.52 1.46 1.37 1.32 1.33 1.32 1.32 1.32 1.33 1.27 1.22 1.21
0.54 0.53 0.54 0.54 0.55 0.56 0.59 0.63 0.65 0.67 0.68 0.70 0.77 0.84 0.91 0.97 0.99 1.05 1.13 1.15 1.10 1.09 1.10 1.19 1.27 1.31 1.36 1.41 1.50 1.60 1.66 1.75 1.81 1.83 1.85 1.89 1.91 1.91 1.83 1.82 1.85 1.87 1.87 1.91 1.93 1.92 1.93 1.91 1.90 1.92 1.97 1.98 2.00 1.98 1.97 1.94 1.94 1.92 1.93 1.92 1.91 1.91 1.92 1.92 1.92 1.90 1.88 1.83 1.76 1.72 1.67 1.62 1.57 1.54 1.53 1.48 1.43 1.38 1.38 1.38 1.37 1.37 1.34 1.29 1.29
0.56 0.55 0.54 0.54 0.56 0.58 0.60 0.64 0.68 0.69 0.71 0.73 0.76 0.80 0.84 0.89 0.94 0.97 1.02 1.04 1.04 1.12 1.20 1.20 1.23 1.24 1.27 1.35 1.43 1.50 1.58 1.64 1.69 1.73 1.75 1.78 1.84 1.84 1.79 1.78 1.79 1.86 1.91 1.88 1.87 1.88 1.87 1.87 1.90 1.94 1.99 1.98 2.01 2.03 2.03 2.01 2.01 2.01 2.00 1.98 1.97 1.96 1.95 1.96 1.96 1.95 1.89 1.85 1.79 1.72 1.68 1.65 1.62 1.59 1.53 1.48 1.47 1.45 1.46 1.46 1.44 1.41 1.39 1.37 1.39
0.59 0.57 0.56 0.56 0.58 0.60 0.60 0.62 0.67 0.69 0.70 0.73 0.78 0.81 0.80 0.84 0.90 0.95 0.99 1.03 1.05 1.04 1.10 1.23 1.21 1.16 1.13 1.19 1.35 1.45 1.52 1.54 1.58 1.60 1.64 1.67 1.69 1.68 1.68 1.70 1.73 1.73 1.74 1.81 1.86 1.83 1.81 1.86 1.93 1.97 2.01 2.02 2.02 2.04 2.04 2.04 2.03 2.02 2.01 2.01 2.02 1.98 1.97 1.96 1.94 1.93 1.90 1.85 1.82 1.78 1.73 1.69 1.68 1.65 1.63 1.53 1.48 1.48 1.49 1.49 1.46 1.42 1.43 1.46 1.48
0.62 0.61 0.61 0.59 0.57 0.58 0.59 0.64 0.68 0.69 0.70 0.75 0.78 0.80 0.78 0.80 0.85 0.91 0.96 1.03 1.08 1.08 1.09 1.19 1.24 1.20 1.22 1.28 1.32 1.46 1.47 1.43 1.43 1.46 1.52 1.59 1.66 1.69 1.69 1.70 1.70 1.70 1.71 1.72 1.78 1.83 1.83 1.85 1.93 2.01 2.07 2.07 2.06 2.07 2.08 2.07 2.07 2.01 1.99 1.98 1.99 1.99 1.97 1.96 1.94 1.92 1.87 1.81 1.80 1.79 1.75 1.74 1.74 1.73 1.69 1.62 1.56 1.56 1.58 1.58 1.57 1.55 1.52 1.54 1.54
0.62 0.63 0.64 0.62 0.58 0.58 0.59 0.60 0.62 0.64 0.68 0.72 0.76 0.79 0.79 0.79 0.80 0.87 0.95 0.98 1.04 1.09 1.10 1.11 1.19 1.25 1.30 1.34 1.32 1.37 1.34 1.35 1.39 1.43 1.49 1.52 1.55 1.64 1.69 1.68 1.66 1.67 1.69 1.71 1.75 1.81 1.85 1.88 1.94 1.98 2.02 2.07 2.12 2.12 2.11 2.09 2.07 2.04 1.99 1.94 1.92 1.90 1.90 1.94 1.95 1.91 1.87 1.87 1.86 1.84 1.82 1.80 1.80 1.82 1.81 1.74 1.69 1.70 1.69 1.68 1.67 1.66 1.65 1.63 1.66
0.66 0.65 0.64 0.62 0.64 0.66 0.67 0.67 0.69 0.71 0.74 0.75 0.77 0.78 0.78 0.79 0.80 0.84 0.91 0.96 1.01 1.10 1.11 1.10 1.11 1.26 1.34 1.35 1.35 1.36 1.36 1.39 1.43 1.46 1.50 1.55 1.56 1.55 1.61 1.66 1.68 1.69 1.71 1.72 1.75 1.81 1.86 1.91 1.95 1.99 2.02 2.05 2.11 2.13 2.12 2.10 2.08 2.03 1.94 1.86 1.84 1.83 1.86 1.90 1.94 1.93 1.93 1.93 1.95 1.96 1.96 1.95 1.88 1.81 1.73 1.72 1.76 1.77 1.80 1.81 1.81 1.78 1.76 1.74 1.74
0.68 0.65 0.63 0.65 0.68 0.67 0.66 0.65 0.69 0.75 0.76 0.75 0.77 0.78 0.79 0.80 0.80 0.80 0.84 0.90 0.97 1.11 1.15 1.13 1.12 1.20 1.34 1.36 1.39 1.43 1.44 1.45 1.47 1.47 1.51 1.55 1.58 1.60 1.62 1.65 1.71 1.73 1.73 1.74 1.78 1.82 1.87 1.91 1.95 2.01 1.99 2.01 2.04 2.07 2.09 2.07 2.04 2.00 1.92 1.84 1.80 1.82 1.82 1.82 1.84 1.89 1.90 1.93 2.00 1.98 2.02 1.98 1.91 1.82 1.72 1.68 1.70 1.74 1.77 1.82 1.85 1.86 1.84 1.82 1.79
0.71 0.70 0.69 0.69 0.69 0.69 0.70 0.72 0.74 0.73 0.74 0.75 0.76 0.80 0.82 0.81 0.80 0.79 0.82 0.88 0.93 1.07 1.18 1.16 1.13 1.14 1.24 1.34 1.32 1.34 1.38 1.43 1.44 1.45 1.47 1.50 1.55 1.62 1.66 1.68 1.70 1.74 1.77 1.81 1.83 1.83 1.86 1.91 1.95 2.02 2.07 2.06 2.05 2.05 2.05 2.05 2.06 2.03 2.01 1.92 1.84 1.83 1.81 1.80 1.81 1.84 1.88 1.93 2.02 2.06 2.08 2.00 1.91 1.87 1.83 1.77 1.77 1.77 1.75 1.80 1.87 1.91 1.90 1.88 1.84
0.73 0.72 0.70 0.71 0.71 0.71 0.74 0.75 0.74 0.74 0.73 0.76 0.80 0.81 0.82 0.81 0.80 0.80 0.80 0.84 0.90 0.97 1.13 1.19 1.19 1.13 1.15 1.31 1.36 1.32 1.31 1.39 1.48 1.50 1.50 1.54 1.53 1.49 1.52 1.59 1.61 1.61 1.65 1.70 1.75 1.80 1.82 1.85 1.89 1.97 2.04 2.06 2.02 1.98 1.99 2.03 2.04 2.02 2.01 1.99 1.92 1.86 1.83 1.83 1.83 1.86 1.89 1.92 1.94 1.90 1.87 1.88 1.95 2.06 2.02 1.99 1.94 1.88 1.78 1.78 1.80 1.85 1.89 1.88 1.84
0.77 0.77 0.78 0.77 0.75 0.73 0.72 0.74 0.75 0.74 0.76 0.78 0.80 0.81 0.82 0.82 0.80 0.80 0.80 0.82 0.88 0.95 1.05 1.14 1.20 1.19 1.14 1.18 1.27 1.28 1.28 1.31 1.38 1.45 1.48 1.49 1.51 1.53 1.55 1.56 1.57 1.56 1.58 1.62 1.68 1.72 1.74 1.76 1.78 1.82 1.89 1.94 1.94 1.92 1.94 1.98 2.00 2.00 2.01 1.98 1.90 1.85 1.85 1.86 1.89 1.93 1.94 1.88 1.82 1.79 1.82 1.88 1.86 1.85 1.85 1.88 1.87 1.81 1.73 1.71 1.75 1.80 1.83 1.83 1.79
0.81 0.81 0.81 0.80 0.77 0.75 0.73 0.72 0.74 0.75 0.76 0.78 0.80 0.80 0.81 0.82 0.82 0.80 0.80 0.82 0.87 0.92 1.00 1.08 1.14 1.15 1.13 1.10 1.16 1.21 1.22 1.24 1.30 1.37 1.43 1.47 1.49 1.52 1.54 1.54 1.53 1.52 1.53 1.54 1.57 1.62 1.65 1.67 1.67 1.67 1.69 1.71 1.75 1.78 1.81 1.84 1.87 1.89 1.92 1.92 1.88 1.85 1.86 1.90 1.93 1.92 1.90 1.87 1.83 1.81 1.78 1.78 1.82 1.83 1.85 1.83 1.83 1.81 1.79 1.80 1.84 1.82 1.81 1.84 1.84
0.90 0.86 0.85 0.83 0.79 0.75 0.72 0.73 0.74 0.74 0.76 0.79 0.82 0.82 0.82 0.83 0.83 0.82 0.82 0.82 0.84 0.89 0.95 1.03 1.10 1.13 1.10 1.09 1.08 1.13 1.16 1.21 1.27 1.33 1.39 1.43 1.46 1.47 1.47 1.47 1.47 1.47 1.48 1.50 1.51 1.53 1.55 1.57 1.60 1.61 1.63 1.66 1.68 1.68 1.70 1.73 1.74 1.77 1.80 1.81 1.80 1.80 1.82 1.86 1.89 1.89 1.91 1.93 1.90 1.83 1.81 1.78 1.75 1.76 1.75 1.78 1.82 1.84 1.84 1.80 1.81 1.83 1.83 1.84 1.84
0.90 0.88 0.86 0.84 0.80 0.75 0.73 0.73 0.73 0.75 0.77 0.79 0.82 0.83 0.83 0.84 0.84 0.83 0.82 0.82 0.84 0.87 0.91 0.98 1.05 1.12 1.13 1.09 1.08 1.08 1.13 1.17 1.23 1.27 1.30 1.32 1.35 1.38 1.39 1.39 1.38 1.39 1.41 1.43 1.46 1.47 1.49 1.52 1.55 1.58 1.60 1.62 1.63 1.64 1.65 1.66 1.66 1.66 1.66 1.67 1.68 1.70 1.73 1.77 1.80 1.82 1.86 1.91 1.87 1.82 1.76 1.72 1.69 1.68 1.71 1.72 1.77 1.78 1.76 1.75 1.79 1.80 1.79 1.78 1.82
0.89 0.88 0.86 0.83 0.79 0.76 0.73 0.72 0.73 0.74 0.76 0.80 0.82 0.84 0.84 0.84 0.84 0.84 0.83 0.84 0.85 0.87 0.89 0.93 0.99 1.06 1.12 1.12 1.09 1.06 1.11 1.15 1.18 1.20 1.22 1.25 1.30 1.33 1.34 1.35 1.35 1.35 1.36 1.37 1.39 1.42 1.44 1.46 1.49 1.52 1.55 1.57 1.57 1.56 1.57 1.57 1.55 1.53 1.51 1.52 1.55 1.59 1.62 1.64 1.66 1.68 1.74 1.77 1.76 1.71 1.67 1.61 1.55 1.55 1.60 1.61 1.64 1.69 1.74 1.74 1.75 1.73 1.71 1.73 1.71
0.91 0.90 0.87 0.82 0.79 0.77 0.76 0.76 0.76 0.77 0.79 0.82 0.83 0.84 0.85 0.86 0.86 0.85 0.84 0.84 0.85 0.87 0.89 0.91 0.95 1.00 1.06 1.12 1.15 1.11 1.09 1.13 1.16 1.19 1.22 1.23 1.25 1.28 1.30 1.31 1.31 1.32 1.33 1.34 1.39 1.43 1.45 1.46 1.47 1.49 1.50 1.52 1.52 1.51 1.52 1.53 1.53 1.53 1.52 1.53 1.61 1.62 1.60 1.60 1.62 1.65 1.68 1.68 1.66 1.65 1.65 1.56 1.53 1.51 1.55 1.58 1.62 1.65 1.62 1.62 1.66 1.68 1.67 1.68 1.71
0.90 0.89 0.86 0.82 0.79 0.78 0.77 0.77 0.77 0.79 0.81 0.82 0.83 0.84 0.85 0.87 0.87 0.86 0.85 0.84 0.84 0.85 0.87 0.89 0.93 0.96 0.99 1.04 1.09 1.16 1.14 1.12 1.12 1.16 1.22 1.23 1.23 1.24 1.25 1.27 1.29 1.29 1.27 1.26 1.27 1.28 1.32 1.36 1.40 1.42 1.43 1.44 1.44 1.44 1.43 1.44 1.46 1.49 1.51 1.54 1.55 1.56 1.56 1.57 1.60 1.63 1.66 1.67 1.64 1.63 1.62 1.56 1.51 1.50 1.48 1.47 1.52 1.59 1.61 1.63 1.61 1.58 1.57 1.60 1.61
Wind_Speed
23 23 23 22 22 22 21 21 21 20 20 20 21 21 21 20 20 19 18 18 18 17 17 16 15 14 14 13 13 13 12 12 11 11 10 10 9 8 8 8 8 7 7 7 6 6 6 6 6 6 6 6 6 6 7 7 8 8 8 8 8 8 8 8 8 8 8 7 7 7 7 7 7 7 7 7 7 8 9 9 10 10 9 8 8
24 23 23 23 23 23 22 22 22 21 21 21 21 21 21 21 21 20 19 19 19 18 17 17 16 16 15 14 14 14 13 13 12 12 11 11 10 9 9 9 8 8 8 8 7 7 7 7 7 7 7 7 7 7 7 7 8 8 8 8 9 9 9 9 9 10 10 9 9 9 9 8 9 9 9 9 9 9 9 10 10 10 10 9 8
23 23 23 23 23 23 23 22 22 22 22 22 22 22 22 22 21 21 21 20 20 19 19 18 17 17 16 16 15 15 14 14 13 13 12 12 11 11 10 9 9 9 9 9 8 8 8 8 7 7 7 7 7 7 7 8 8 8 9 9 9 9 10 10 10 10 11 10 10 10 10 10 10 10 11 11 11 11 10 11 11 11 11 11 10
23 24 24 24 24 23 23 23 23 23 23 22 22 22 22 22 22 22 21 21 20 20 20 19 19 18 18 17 17 16 16 15 14 14 13 13 12 12 11 10 10 10 10 9 9 9 9 8 8 8 8 8 8 8 8 8 8 9 9 10 10 10 10 11 11 11 11 11 11 11 11 12 12 12 12 12 12 12 12 12 12 12 12 12 11
22 23 24 24 24 24 24 24 23 23 23 23 23 23 23 23 22 22 22 22 21 21 20 20 20 19 19 19 18 18 17 16 16 15 15 14 14 13 12 12 11 11 10 10 10 10 10 10 9 9 9 9 9 9 9 9 9 9 10 10 10 11 11 12 12 12 12 12 12 12 12 13 13 13 13 13 13 13 13 13 13 13 13 13 12
22 22 23 24 24 24 24 24 24 24 24 24 23 23 23 23 23 23 23 23 22 22 21 21 21 21 20 20 19 19 18 18 17 17 16 16 15 14 14 13 12 12 11 11 11 11 11 10 10 10 10 10 10 10 10 10 10 10 10 11 11 11 12 12 13 13 13 14 14 14 14 14 14 14 14 14 14 14 14 14 14 13 13 14 13
22 23 23 23 24 24 25 24 24 24 25 25 24 24 24 24 24 23 23 23 23 23 23 22 22 22 22 21 21 20 20 19 19 18 18 17 17 16 15 15 14 14 13 13 12 12 12 11 11 11 11 12 12 11 11 11 11 11 11 11 11 12 12 13 13 13 14 14 14 14 14 14 14 14 14 14 15 15 14 14 14 14 14 14 14
23 23 24 24 24 24 25 25 25 25 25 25 25 25 24 24 24 24 24 24 24 24 23 23 23 23 23 22 22 21 21 20 20 20 19 19 19 18 17 17 16 15 15 15 14 14 13 13 13 13 13 13 13 13 12 12 12 12 13 12 13 13 13 13 13 14 14 14 14 15 14 14 15 15 15 15 15 15 14 14 15 15 14 14 14
23 23 24 25 25 25 25 25 25 25 25 26 26 26 25 25 25 25 25 25 24 24 24 24 24 24 24 23 23 23 22 22 21 21 20 20 20 19 19 18 18 17 17 17 16 16 15 15 15 14 14 14 14 14 14 14 14 14 14 14 14 14 14 14 15 15 15 15 15 15 15 15 15 15 15 15 15 15 15 15 15 15 15 15 15
22 23 24 25 25 25 25 25 26 26 26 26 26 26 26 26 26 26 26 26 25 25 25 25 25 25 25 25 24 24 24 23 23 23 22 21 21 20 20 20 19 19 19 18 18 18 17 17 17 16 16 16 16 16 16 16 16 16 16 16 16 16 16 16 16 16 16 16 16 16 16 16 15 15 15 15 16 16 16 16 16 15 15 15 16
22 22 23 24 25 26 26 26 26 27 27 27 27 27 27 27 27 27 27 27 27 26 26 26 26 26 26 26 26 25 25 25 25 24 24 24 23 22 21 21 21 21 20 20 20 19 19 19 18 18 18 18 18 18 18 18 18 18 18 18 18 17 17 17 17 17 17 17 17 17 17 17 16 16 16 16 16 16 16 16 16 16 16 16 16
22 22 23 24 25 26 26 26 26 26 27 28 28 27 27 27 28 28 28 28 28 28 28 27 27 27 27 27 27 27 26 26 26 26 26 25 25 24 23 22 22 22 22 22 21 21 21 20 20 19 19 19 19 19 19 19 19 19 19 19 19 19 19 19 18 18 18 18 18 17 17 17 17 17 17 17 17 17 17 17 17 17 17 17 17
21 22 23 24 24 25 26 26 26 26 27 28 28 28 28 28 28 28 28 29 29 29 29 28 28 28 28 28 28 28 28 28 27 27 27 27 26 26 25 24 24 23 23 23 22 22 22 22 21 21 20 20 20 20 20 19 19 20 20 20 20 20 21 21 20 20 19 19 19 19 18 18 18 18 17 17 18 18 18 18 18 18 18 18 18
20 21 23 24 24 25 25 26 26 26 27 28 28 29 29 29 29 29 29 29 29 29 29 29 29 29 29 29 29 29 29 29 28 28 28 28 27 27 26 26 25 25 25 24 24 24 23 23 23 22 22 21 21 21 21 21 20 20 20 20 21 21 21 21 21 21 21 21 21 20 20 19 19 19 19 18 19 19 19 19 19 19 19 19 20
20 21 22 23 24 24 24 25 26 26 27 28 28 29 29 30 30 29 29 29 29 29 30 30 30 30 30 30 30 29 29 29 29 29 29 29 28 28 28 27 27 26 26 26 26 25 25 24 24 24 23 23 22 22 22 22 21 21 21 21 21 21 21 22 22 22 22 22 22 22 21 21 20 20 20 19 19 19 19 19 20 20 20 21 21
20 20 21 22 24 25 25 25 26 26 27 28 29 29 29 30 30 30 30 30 30 30 30 30 30 30 30 30 30 30 30 29 29 29 29 30 29 29 28 28 28 28 27 27 27 27 26 26 26 25 25 25 24 24 24 23 23 22 22 22 22 22 22 22 23 23 23 23 23 22 22 22 21 21 20 20 20 20 20 20 20 20 20 20 20
20 21 21 22 23 24 25 26 26 27 28 28 29 29 30 30 30 30 31 31 30 30 30 30 30 30 30 30 30 30 30 30 30 30 30 30 29 29 29 29 28 28 28 28 28 28 28 28 27 27 27 26 26 26 25 25 25 24 24 23 23 23 23 23 23 24 24 24 24 24 24 23 23 22 22 22 21 21 21 21 21 20 20 20 20
21 21 22 22 22 24 25 26 26 27 28 29 29 30 30 30 30 30 30 31 31 31 30 30 30 30 30 30 30 30 30 30 30 30 30 30 30 29 29 29 28 28 28 28 28 28 29 29 29 29 28 28 28 27 27 26 26 26 25 25 24 24 24 24 23 23 24 24 25 25 25 25 24 24 24 23 23 22 22 22 22 21 20 20 20
22 22 22 23 23 23 24 26 26 27 28 29 30 30 30 30 29 28 29 30 30 30 30 30 30 30 30 30 30 30 30 30 30 30 31 31 30 30 29 29 28 28 28 28 29 29 29 29 30 30 30 29 29 28 28 27 27 27 26 26 26 26 25 25 24 24 23 24 24 24 24 25 25 25 25 25 24 23 23 23 23 22 21 21 21
25 24 24 24 24 24 24 25 26 27 28 29 30 31 30 29 29 28 28 28 28 29 30 30 30 30 30 30 30 30 30 30 30 30 31 31 31 30 30 29 29 28 28 28 28 28 29 29 29 30 30 31 30 29 29 28 28 28 27 26 26 26 26 25 25 25 24 24 24 24 24 24 24 24 25 25 24 24 24 24 24 23 23 22 22
26 26 26 26 26 26 26 26 26 27 28 30 31 31 30 29 29 30 29 28 28 29 29 29 30 30 30 30 30 30 30 30 30 30 31 31 31 31 30 30 29 29 29 29 28 28 29 29 29 29 30 30 30 30 29 29 29 28 27 27 27 27 26 25 25 25 25 25 25 25 25 25 25 25 25 24 24 24 24 25 25 24 24 24 23
28 28 28 28 27 27 27 27 28 28 28 29 30 30 30 29 29 29 30 30 30 30 30 29 30 30 30 31 31 31 31 31 31 31 31 31 31 31 31 30 30 29 29 29 29 29 29 29 29 29 29 30 30 30 29 29 29 29 29 28 28 27 27 26 26 25 25 25 25 25 25 25 25 25 25 24 24 24 24 24 25 25 25 25 24
29 29 29 29 29 29 29 29 29 29 29 29 29 29 30 30 29 30 30 31 31 31 31 30 30 30 30 30 31 31 31 32 32 32 32 32 32 32 32 31 31 30 29 29 29 29 29 29 29 29 29 29 29 29 29 29 29 29 29 29 28 28 27 27 26 26 26 26 25 25 25 25 25 25 25 24 24 24 24 25 25 25 25 26 26
31 31 31 30 30 30 30 30 30 30 30 30 29 29 29 30 30 31 31 31 31 31 31 31 31 30 30 30 31 31 31 31 32 33 33 33 33 33 33 32 31 31 30 30 29 29 29 28 28 28 28 28 29 29 29 29 28 28 29 29 28 28 27 27 27 26 26 26 26 25 25 25 25 25 25 25 25 25 25 25 26 26 26 26 27
33 33 32 32 32 32 31 31 31 31 31 30 30 30 29 29 30 30 31 31 31 31 31 31 31 31 31 31 31 31 31 31 31 32 33 33 33 33 33 33 32 32 31 30 30 29 29 28 28 28 27 27 27 28 28 28 28 28 28 28 27 27 27 27 26 26 27 26 26 25 25 25 25 26 26 26 26 25 25 26 26 26 27 27 27
36 35 35 34 34 33 33 33 32 32 32 31 31 31 30 29 29 30 31 31 32 32 32 32 32 32 32 32 31 31 31 31 31 30 31 32 32 33 33 33 32 32 32 31 30 30 29 28 28 27 27 26 26 26 26 27 27 27 27 26 26 26 26 26 26 26 27 27 26 26 25 25 26 26 26 26 26 25 25 25 26 26 26 26 27
39 38 37 37 36 35 35 34 34 33 33 32 32 32 31 31 30 30 31 32 33 33 33 33 34 33 33 32 32 31 31 30 30 30 30 30 31 31 32 32 31 31 31 31 30 30 29 28 27 27 27 26 26 26 26 26 25 25 25 26 26 26 26 25 25 26 26 27 27 27 27 27 26 27 27 27 27 26 26 26 26 26 27 26 27
42 41 40 39 39 38 37 36 35 34 34 33 33 32 32 31 31 31 31 33 33 33 33 34 34 33 32 32 31 30 30 30 30 30 30 29 29 29 30 31 31 30 30 30 29 28 28 27 27 26 26 26 26 26 26 26 25 25 26 26 26 26 26 26 26 26 26 26 26 27 27 27 28 28 28 28 28 27 27 27 27 27 27 26 26
44 43 42 41 40 40 39 39 37 36 35 35 34 34 33 33 33 32 32 33 34 34 34 34 34 33 32 32 31 30 29 29 29 29 29 30 30 29 29 29 29 29 29 28 27 28 28 28 27 27 27 26 26 26 26 26 26 26 26 27 27 27 26 26 26 26 26 27 27 27 27 27 28 28 28 28 28 28 28 28 28 27 27 27 27
45 45 44 43 42 41 41 41 40 39 38 37 36 36 36 35 35 35 34 34 35 36 37 37 37 35 34 33 32 31 31 30 29 29 29 29 29 29 28 28 28 28 28 27 26 27 29 29 28 28 28 27 27 27 26 26 26 26 26 26 27 27 27 27 27 27 27 27 27 27 27 28 28 28 29 29 29 29 29 28 28 28 28 28 28
46 46 45 45 44 43 43 43 43 42 41 39 38 38 38 37 37 36 36 36 36 37 38 38 39 38 38 36 35 35 35 34 33 32 32 31 30 30 30 30 29 29 29 27 26 26 28 29 28 27 28 28 28 27 27 27 27 27 27 26 27 27 28 28 28 28 28 27 27 28 28 29 29 29 29 30 30 30 30 29 29 29 29 28 29
48 47 46 46 46 45 45 44 44 44 43 42 40 39 39 39 38 37 37 37 37 37 37 38 38 38 38 38 38 37 37 37 36 36 35 34 33 33 32 32 31 30 29 28 28 27 28 28 28 28 28 28 28 27 27 27 28 28 28 27 27 27 28 28 28 28 28 28 28 28 28 29 29 30 30 30 31 31 30 30 29 29 29 28 29
50 49 48 48 47 47 46 45 45 45 44 44 42 41 40 40 39 38 37 37 37 38 37 37 37 37 37 38 39 39 38 38 38 38 38 38 37 37 36 35 34 32 31 30 30 29 29 28 29 29 29 28 28 28 28 28 28 29 28 28 28 29 29 29 28 29 29 29 29 29 29 29 29 30 30 30 31 31 31 30 30 30 29 29 29
52 51 50 49 48 48 47 46 46 46 46 45 44 43 42 41 40 39 38 37 37 37 37 37 37 37 36 37 38 39 39 39 39 39 39 40 40 39 38 37 36 35 34 33 32 31 31 31 30 30 30 29 29 29 29 29 29 29 29 29 29 30 30 30 30 30 30 30 30 30 30 29 29 29 30 30 30 30 30 31 31 31 30 30 29
53 52 51 51 50 49 48 47 47 47 47 46 46 45 44 42 41 40 39 38 37 37 37 37 37 37 37 37 37 37 38 39 39 39 39 39 39 39 39 38 37 36 36 35 34 34 33 33 32 32 31 30 30 30 30 30 30 30 30 30 30 31 31 31 32 32 31 31 30 30 30 30 30 29 29 30 30 30 30 31 31 31 31 30 30
54 53 52 52 51 50 50 49 48 47 47 47 47 46 46 44 43 42 41 40 40 39 38 37 37 37 37 37 37 37 38 38 38 39 39 39 38 39 39 39 39 38 38 38 37 36 36 35 34 34 33 32 32 31 31 31 31 31 31 31 31 31 32 32 32 33 32 32 32 31 31 30 30 29 29 30 30 30 31 31 31 31 31 31 31
54 54 53 52 52 51 51 50 49 48 48 48 48 48 47 47 46 44 43 42 41 41 40 39 38 37 37 37 37 38 37 37 37 37 37 37 37 38 38 39 39 39 39 38 38 37 37 37 36 35 35 34 34 33 32 32 32 32 32 32 32 32 33 33 33 33 33 33 33 33 32 31 30 30 29 29 29 30 31 31 31 31 31 31 32
55 55 54 53 52 52 52 51 50 50 49 49 49 48 48 48 47 46 44 43 42 42 42 41 40 39 38 37 37 37 36 36 36 36 36 36 37 37 38 38 38 39 39 39 38 37 37 37 37 37 37 37 36 35 35 34 34 34 34 33 33 33 33 33 33 33 33 33 33 32 31 31 30 30 29 29 29 30 30 30 31 31 31 31 32
55 55 56 55 54 54 54 53 52 51 50 50 49 49 48 48 48 47 46 44 43 42 42 42 41 40 38 37 36 36 36 36 36 36 36 36 37 38 38 37 37 38 38 38 38 38 37 37 37 38 38 38 38 37 36 35 35 35 34 34 34 33 33 32 32 32 32 33 33 33 32 31 31 30 30 30 30 30 30 30 31 31 31 31 32
55 55 55 55 55 54 54 54 53 52 52 51 50 50 49 49 49 49 48 46 45 43 42 43 43 42 40 38 37 37 37 38 37 37 37 37 37 38 38 38 38 38 38 38 38 38 38 37 37 37 37 37 38 38 37 35 34 34 34 34 34 34 33 33 32 32 32 32 32 33 33 32 32 32 32 32 31 31 31 31 32 32 33 33 33
54 54 54 55 54 54 54 54 54 53 52 52 51 50 50 49 49 49 49 48 47 45 44 44 44 43 41 40 38 38 38 38 38 37 37 37 37 37 37 37 37 37 36 36 37 37 37 36 36 36 36 36 36 37 37 36 35 34 35 35 34 34 34 34 34 34 34 34 33 33 33 33 33 33 33 33 33 33 34 34 34 34 34 34 34
53 53 54 54 54 54 54 54 54 54 53 52 51 51 50 50 50 50 50 49 48 47 46 45 44 43 42 42 40 39 38 39 38 38 38 38 38 37 37 37 36 36 35 35 35 35 35 35 35 35 35 35 35 36 36 36 36 35 35 35 35 35 35 35 35 35 36 36 36 36 35 34 35 35 36 36 36 36 37 37 37 37 37 37 37
51 52 53 53 54 54 54 54 54 53 53 52 51 51 51 50 50 50 50 49 48 47 47 45 43 43 43 43 42 40 39 39 40 39 38 38 38 38 37 36 35 35 35 35 34 34 34 35 35 35 36 36 36 36 36 36 36 36 36 36 36 37 37 36 36 36 36 37 38 37 36 36 37 37 38 38 38 39 40 40 40 40 40 39 39
50 50 51 52 53 53 53 53 53 53 52 52 51 51 51 51 50 50 49 49 48 48 47 46 44 42 42 42 42 41 40 39 39 39 38 38 37 37 37 36 35 35 36 36 36 36 36 36 36 37 37 36 36 36 36 36 36 36 37 37 37 37 37 37 37 38 38 38 38 38 38 38 38 39 39 39 40 40 41 41 41 41 40 40 40
48 48 49 50 51 52 52 53 53 53 52 51 51 51 51 50 50 49 49 48 48 47 47 46 44 43 42 42 42 41 39 38 39 39 38 38 37 37 37 37 37 37 37 37 37 37 37 38 38 38 38 38 38 38 38 39 39 39 39 39 39 39 39 39 39 40 40 40 39 39 39 39 40 40 40 41 42 42 42 42 41 41 41 41 40
45 46 46 48 49 50 51 51 52 52 51 51 51 50 50 49 49 48 48 47 47 47 46 45 45 43 42 42 42 41 40 39 38 39 38 38 38 37 37 36 37 37 37 37 37 38 38 38 38 39 39 39 40 40 40 41 41 42 42 42 42 42 42 42 42 42 41 41 41 40 41 41 41 41 41 42 43 43 43 42 42 42 41 41 41
41 42 43 44 47 48 49 49 50 51 50 50 50 50 49 49 48 47 47 46 46 46 45 45 45 44 43 42 41 41 40 39 39 39 38 38 38 38 37 36 36 36 36 36 37 37 37 38 38 38 38 39 39 40 40 41 41 42 42 43 43 43 43 44 44 44 43 42 42 42 42 42 41 41 42 43 43 43 42 42 41 41 41 41 41
37 39 40 42 44 46 47 48 48 49 49 50 50 49 49 48 47 47 46 45 44 44 44 45 45 45 44 42 41 41 40 39 39 38 37 37 37 37 37 36 36 35 36 36 36 36 37 37 37 37 37 37 37 38 39 40 40 41 42 42 43 43 43 43 43 43 42 43 43 43 42 42 41 41 41 42 41 41 40 40 40 40 40 40 40
34 36 38 40 42 44 45 46 46 47 48 49 49 49 48 47 46 46 45 44 43 43 43 44 44 44 44 43 41 41 40 40 38 38 37 36 36 36 36 36 36 36 36 35 34 34 35 35 35 35 35 36 36 37 38 39 39 40 40 41 41 41 41 41 41 41 41 42 42 41 40 39 40 40 40 40 39 39 39 39 38 38 38 37 37
33 34 35 37 39 41 43 43 44 45 46 47 48 48 47 46 45 45 44 43 43 42 42 42 43 43 44 43 42 41 41 40 39 38 37 37 36 35 35 35 35 35 34 33 32 32 32 33 33 33 34 34 35 35 36 37 38 38 38 38 38 38 38 38 39 39 40 41 41 40 39 38 38 38 38 38 37 37 36 36 35 35 34 34 33
30 32 33 34 36 38 40 41 42 43 44 45 46 46 46 45 44 44 43 43 43 42 41 41 41 41 42 43 42 42 41 41 40 39 38 37 36 35 34 33 33 32 32 31 30 30 30 30 30 31 31 32 32 32 33 34 35 35 35 35 35 35 36 36 36 37 37 38 38 38 38 38 37 36 35 35 35 34 33 33 33 32 32 31 30
Wind_Direction
217 217 217 217 217 215 215 215 215 216 215 213 213 213 214 215 215 215 215 215 214 214 215 216 217 216 215 213 212 211 211 210 211 211 211 212 213 212 211 211 211 211 211 209 208 208 210 212 213 213 214 216 219 221 222 224 226 227 228 229 231 232 235 241 248 255 260 263 266 270 274 278 282 289 297 303 307 313 320 323 325 330 331 330 334
217 217 218 219 219 218 217 216 216 217 217 216 214 214 215 215 216 217 217 217 216 216 216 217 218 218 217 216 215 214 213 213 214 214 215 215 216 217 217 217 217 217 218 217 217 217 219 220 221 222 222 224 226 228 228 230 231 231 232 233 236 238 240 245 252 258 263 265 267 270 273 275 279 284 290 293 297 303 309 315 317 320 324 323 322
218 219 220 222 222 221 220 219 218 218 218 218 216 215 215 216 217 218 218 219 219 218 218 219 219 219 218 219 218 217 217 216 217 218 218 219 219 220 221 221 221 221 222 223 223 224 225 227 228 228 228 230 232 234 234 236 237 238 238 238 241 243 244 248 253 259 264 267 270 272 273 276 279 283 286 288 291 295 300 305 308 310 314 315 312
219 220 221 222 223 222 222 221 220 220 220 220 218 217 217 217 218 219 220 221 221 220 220 221 221 220 220 220 221 221 220 220 220 221 221 222 222 223 224 224 224 224 226 228 228 230 232 233 234 234 234 236 237 239 240 242 243 245 246 246 247 249 249 251 254 259 264 268 272 275 276 279 282 283 285 287 288 291 293 297 301 303 306 307 304
219 220 220 222 222 222 222 222 222 222 222 221 220 219 219 218 219 220 221 222 223 223 222 222 222 222 222 222 223 223 223 223 223 223 223 224 224 224 225 226 227 229 231 232 233 236 237 239 240 240 241 242 242 243 243 245 247 249 251 251 252 254 254 255 257 260 264 268 272 276 279 281 283 284 286 287 288 290 291 293 296 298 301 303 300
221 221 221 221 221 222 222 222 222 223 224 223 222 221 221 220 220 221 222 223 224 225 225 224 224 224 223 223 224 225 225 225 226 225 225 225 225 225 226 228 230 232 233 235 237 238 240 242 243 244 245 246 247 247 247 248 250 251 253 255 256 257 258 259 261 262 265 269 272 276 278 280 283 285 286 287 289 290 291 293 295 296 299 301 299
224 223 222 222 222 223 223 223 223 224 225 225 224 223 223 222 222 222 223 224 225 226 227 226 226 225 225 225 225 226 227 227 228 228 227 227 227 227 228 230 232 234 235 237 238 240 242 244 246 246 248 249 250 251 251 252 254 255 256 258 259 260 261 262 264 265 267 270 272 275 277 278 281 284 286 287 288 289 290 291 293 295 297 299 300
227 226 224 224 224 224 224 224 224 225 226 227 227 226 225 225 224 224 224 225 226 227 228 228 228 227 227 226 226 227 228 229 229 229 229 229 229 230 231 232 234 236 238 239 240 242 244 246 247 248 249 251 251 253 254 255 256 258 259 261 261 262 263 264 265 267 269 271 273 275 277 279 280 283 285 286 287 288 287 288 291 293 295 297 298
229 228 227 226 226 226 226 225 226 227 227 228 229 229 228 227 227 226 226 227 228 228 228 229 230 229 229 228 228 228 229 230 231 231 230 230 231 232 233 234 236 238 239 241 242 244 245 247 249 250 250 252 252 253 256 257 259 261 262 263 264 264 265 266 266 268 270 272 273 275 277 279 280 282 283 284 285 286 287 287 290 291 293 294 295
230 230 229 229 228 228 227 227 228 229 229 230 230 231 230 230 230 230 229 229 230 230 230 230 231 231 231 231 230 230 231 232 232 232 232 233 233 235 236 238 239 240 241 243 244 246 247 248 250 251 252 252 253 254 256 258 259 261 263 264 266 266 267 268 268 268 270 271 273 275 276 277 279 281 282 284 284 285 286 288 290 291 293 294 294
231 231 229 229 228 228 228 228 230 231 231 231 231 231 232 232 232 232 232 232 231 231 231 232 232 232 233 233 233 233 234 234 233 233 234 235 236 238 239 241 242 243 244 245 246 247 249 250 252 253 253 253 254 255 257 258 259 261 263 264 265 266 267 268 269 270 271 272 273 274 275 277 278 279 281 283 284 284 285 287 288 290 292 292 293
231 231 229 228 228 229 229 229 230 231 231 232 232 232 233 233 234 234 234 234 234 233 233 233 233 233 234 235 235 235 236 236 235 235 236 237 238 240 241 243 245 246 246 247 248 249 250 251 252 253 254 254 255 256 257 258 260 261 262 263 264 264 265 267 269 270 271 272 273 274 275 277 277 278 279 281 283 284 285 286 287 288 289 290 291
231 232 231 231 231 230 230 230 231 231 232 232 233 234 234 234 235 235 235 235 235 235 235 234 234 234 235 236 236 237 238 238 237 237 238 239 239 241 242 244 245 247 248 249 250 250 251 252 253 253 254 255 256 257 258 259 261 262 263 264 264 264 264 265 267 268 269 271 273 274 275 276 277 278 279 281 282 284 285 285 286 287 288 289 290
233 233 233 233 233 233 231 231 232 233 233 233 233 234 235 235 236 237 237 237 237 237 236 236 236 236 236 236 238 238 239 239 238 238 239 240 241 242 244 245 246 248 249 250 251 251 252 252 253 254 254 255 256 257 258 260 262 263 264 265 264 264 264 264 265 266 267 269 270 272 273 274 276 278 279 280 281 283 284 285 286 287 288 289 290
235 236 235 234 234 235 235 234 234 234 234 234 234 235 235 236 237 237 238 237 237 237 237 237 238 238 237 238 238 239 240 240 240 239 240 241 242 243 245 246 247 248 249 250 251 252 252 253 253 254 254 255 256 257 259 261 262 264 264 265 265 265 265 264 264 265 266 267 268 269 271 272 274 276 278 279 280 281 283 284 286 287 288 289 290
238 239 238 237 237 237 237 237 237 236 235 235 235 235 236 236 237 238 238 238 237 237 238 238 239 239 239 239 240 240 241 240 240 240 241 241 242 244 246 246 247 248 249 250 251 251 252 252 253 254 254 255 256 257 258 260 262 263 264 264 265 266 266 266 265 265 266 266 267 268 269 271 272 274 276 277 279 281 282 283 285 286 287 288 289
240 241 241 241 240 239 238 238 238 238 237 236 236 236 236 236 236 237 238 238 237 237 238 239 239 240 240 240 241 241 242 241 241 241 241 242 243 245 246 247 248 249 250 250 251 251 252 252 253 253 254 255 256 256 257 259 260 262 263 264 265 265 266 267 266 265 265 266 267 267 268 270 272 273 274 275 276 278 280 281 283 284 284 286 287
242 242 243 242 242 241 240 239 239 239 239 239 238 238 237 236 235 235 236 237 237 237 238 238 239 240 241 241 241 242 243 242 241 241 242 242 243 245 246 247 248 249 250 251 251 252 252 252 252 253 254 255 256 256 256 258 259 260 262 263 264 265 266 267 268 268 267 266 267 268 269 270 271 272 273 273 274 275 276 278 280 281 282 283 285
244 244 244 244 244 243 242 242 241 241 241 241 242 241 240 239 237 237 236 237 237 238 238 239 240 240 241 242 242 242 243 243 242 241 242 242 243 245 246 246 248 249 250 251 252 252 253 253 252 253 254 255 256 256 255 257 258 259 261 262 263 264 265 266 267 268 267 267 268 269 270 270 271 271 271 272 272 272 273 275 278 279 279 281 283
245 245 246 246 246 246 245 244 243 242 242 243 244 244 243 242 242 242 242 242 241 240 240 240 241 241 242 242 242 242 244 244 243 242 242 242 243 244 245 246 247 249 250 251 252 253 254 254 254 253 253 254 255 255 255 256 257 259 260 261 262 264 265 266 266 266 267 267 268 269 269 270 271 271 271 271 271 271 271 273 274 276 277 278 281
248 247 246 246 247 248 247 247 246 245 243 244 245 247 247 246 245 245 246 246 245 244 244 243 243 242 242 243 243 243 243 244 244 242 242 242 243 244 245 246 247 249 250 251 253 254 254 255 255 254 253 254 255 255 255 256 257 258 259 260 262 264 266 266 266 266 267 267 268 269 269 270 270 271 271 272 272 272 272 272 272 273 274 276 278
250 249 248 247 247 248 248 248 248 248 247 247 248 249 250 249 248 247 246 246 245 245 246 247 246 245 244 244 244 243 243 244 244 243 242 242 243 244 245 246 247 249 251 252 253 254 255 255 256 255 254 254 255 256 256 256 257 258 259 260 262 263 264 265 266 267 267 267 268 268 268 269 269 270 270 271 271 271 272 273 272 273 273 275 277
250 250 250 249 248 248 248 249 249 249 250 250 250 250 250 249 248 247 246 245 245 244 244 246 247 247 247 246 246 245 244 244 244 243 242 242 243 244 245 246 247 248 250 252 253 254 255 256 257 257 256 255 256 256 256 257 257 258 259 260 261 262 263 264 265 265 265 266 266 267 267 267 268 268 269 269 270 270 271 273 273 273 274 275 276
250 250 250 250 250 249 248 248 249 250 250 251 251 251 250 249 248 248 248 246 245 245 244 244 245 246 247 248 247 246 245 244 244 243 242 242 243 243 245 246 247 248 249 251 253 255 256 257 258 258 257 256 257 257 257 257 257 258 258 259 260 261 262 262 263 264 264 264 265 265 266 266 266 267 267 269 270 271 271 273 273 273 275 276 276
249 249 250 250 251 250 249 249 249 250 250 251 251 251 250 248 248 248 248 246 246 246 245 244 244 245 246 247 248 247 246 244 243 243 242 242 242 243 244 245 246 247 249 250 252 254 256 257 258 258 258 257 257 258 258 257 257 257 257 258 259 260 261 261 262 263 263 264 264 265 265 266 266 267 268 269 271 272 272 273 274 274 275 276 276
249 249 249 249 250 250 251 251 250 250 250 250 249 249 249 249 247 247 246 245 245 245 245 244 244 245 245 246 247 247 246 245 243 242 242 242 243 243 244 245 246 247 248 250 251 253 254 255 256 258 258 258 257 258 258 258 257 257 257 257 258 259 259 260 261 262 262 263 264 264 265 266 267 268 269 271 272 273 273 274 274 275 275 276 276
249 249 249 249 249 249 250 251 251 251 251 250 249 248 248 248 247 246 246 245 244 244 245 244 243 244 244 245 245 245 245 245 244 243 243 242 243 243 244 245 246 247 249 250 251 251 252 253 254 256 257 257 257 257 258 258 257 257 257 257 258 258 259 260 261 262 262 263 263 264 265 266 267 269 270 271 272 273 273 274 274 275 275 276 276
249 249 249 248 248 248 249 250 251 251 252 250 249 248 247 246 246 246 246 245 244 244 245 245 244 244 245 246 246 246 244 244 244 244 243 242 241 242 244 245 246 247 247 248 249 251 252 253 253 254 255 255 256 257 258 258 257 258 258 258 258 259 259 260 261 262 263 264 265 265 265 265 266 268 270 271 272 272 272 273 273 274 274 274 275
249 249 249 248 247 247 248 249 249 250 251 251 250 249 247 246 246 247 247 247 246 246 246 247 246 247 249 249 249 247 245 242 243 245 246 245 242 241 243 246 246 246 247 248 250 251 252 251 251 251 252 254 255 256 257 257 258 259 259 259 259 259 259 260 261 262 263 264 265 266 266 266 266 267 269 270 271 271 272 272 272 272 272 272 273
248 248 248 248 247 246 246 247 248 249 250 251 251 250 249 247 246 247 248 249 248 248 247 247 247 248 250 250 249 248 246 245 245 247 249 250 247 244 245 246 244 245 247 249 249 250 250 250 250 250 251 252 254 256 257 258 259 260 261 261 261 260 260 260 261 262 263 264 265 267 268 267 267 267 268 268 269 270 271 270 271 271 271 271 272
248 247 247 247 247 246 246 247 248 248 249 250 251 251 251 249 247 246 247 249 250 249 248 248 248 248 249 249 249 249 248 248 248 248 249 251 251 249 248 247 244 244 246 248 248 249 249 250 251 251 251 252 254 256 257 257 258 259 261 262 262 262 262 262 262 263 263 265 266 268 268 268 268 267 267 267 268 269 270 270 270 271 271 271 272
247 247 247 246 246 247 246 246 247 248 248 249 250 250 251 250 249 248 247 247 248 249 248 248 248 248 248 248 249 249 248 248 249 249 249 250 251 251 251 249 247 246 246 247 249 249 249 249 251 252 253 254 254 256 256 257 258 259 260 261 262 263 263 264 264 264 265 266 268 269 270 270 270 269 268 267 268 269 269 270 270 270 271 271 271
247 247 247 246 246 246 246 246 246 247 248 248 249 249 249 250 250 249 248 247 247 248 248 248 248 248 248 248 248 248 248 248 249 250 250 251 251 251 251 251 251 249 248 248 249 250 250 251 252 253 255 255 255 256 256 256 257 258 259 261 262 263 263 264 264 264 265 266 268 270 271 271 272 271 270 269 269 268 268 269 269 270 270 271 271
247 246 246 246 245 245 245 245 245 245 247 248 248 248 248 249 249 249 249 248 248 248 247 247 247 248 248 249 248 248 248 249 249 250 251 251 251 251 251 251 251 250 250 249 250 251 252 253 254 255 256 257 256 256 257 257 258 258 259 261 262 263 263 264 264 264 265 266 268 269 270 271 272 272 272 271 270 269 268 268 269 269 269 270 271
246 245 245 245 244 244 244 244 244 244 245 246 247 247 247 247 248 248 248 248 249 249 247 247 247 248 248 248 248 248 248 248 249 250 251 251 251 250 250 250 251 251 250 251 252 253 254 255 255 255 256 256 257 257 258 258 258 258 259 260 262 264 264 264 264 264 265 265 266 268 269 270 270 271 272 271 271 270 269 269 269 269 269 270 271
245 245 244 244 244 244 244 243 243 243 244 245 246 246 246 246 247 248 248 248 249 248 247 247 248 249 249 249 248 248 248 247 248 249 249 250 249 248 248 249 250 251 251 251 252 253 254 255 256 256 255 255 257 258 258 259 259 259 259 261 263 264 265 264 264 264 264 264 265 266 267 269 269 270 270 270 270 270 270 270 270 270 269 270 270
244 244 244 243 243 243 242 243 243 243 243 244 245 245 246 246 246 247 248 249 249 249 248 247 247 248 249 249 249 249 248 247 247 248 248 248 248 247 248 249 250 251 251 252 253 254 255 255 256 256 256 255 256 257 258 259 259 260 261 262 263 264 265 265 264 264 264 264 265 265 266 268 268 269 270 270 270 271 271 271 271 270 269 269 269
244 244 243 243 243 242 241 242 242 243 243 243 243 243 244 245 245 245 246 247 249 250 250 248 247 247 248 249 249 248 247 247 247 247 247 247 247 247 248 249 250 251 251 251 252 253 254 255 256 256 256 256 256 257 258 259 260 260 261 262 263 264 264 264 265 265 265 265 266 266 267 267 267 268 269 270 271 271 272 272 271 271 270 268 268
244 244 243 243 243 242 241 241 241 242 242 242 242 242 242 243 244 244 244 246 247 249 250 249 247 246 247 249 248 246 246 246 246 246 247 248 248 248 248 248 250 251 251 251 251 252 253 255 256 256 256 256 256 256 258 259 260 260 261 263 263 264 264 264 265 265 266 266 266 266 266 266 266 267 268 269 270 272 272 272 271 271 271 269 269
244 243 243 242 242 241 241 240 241 241 241 241 242 242 242 242 243 243 244 245 246 248 249 249 247 245 246 248 248 247 246 246 246 246 247 248 249 249 248 248 249 250 251 251 251 251 253 255 256 256 256 255 255 256 257 259 260 261 262 263 264 264 265 265 266 266 267 267 267 266 266 266 266 266 267 269 270 271 272 273 272 271 271 271 270
244 243 242 241 240 240 240 240 240 240 240 241 241 242 241 241 242 242 243 244 246 247 249 249 248 246 245 247 248 248 247 245 245 246 247 247 248 249 249 249 249 250 250 251 251 251 252 254 255 256 256 255 255 255 257 258 259 261 262 263 263 264 265 266 267 268 268 268 267 267 267 266 265 266 267 268 270 271 272 272 272 271 271 271 271
243 243 242 240 239 239 240 240 239 239 240 240 240 241 241 241 242 242 243 244 245 246 248 249 248 246 244 245 247 248 246 244 244 246 247 247 248 249 249 250 250 249 250 250 251 252 253 254 255 255 256 255 255 256 257 258 259 261 262 263 264 265 266 267 268 269 269 268 268 268 267 266 266 267 268 268 269 270 271 271 271 271 271 271 272
242 241 241 240 239 238 238 239 239 239 239 239 240 240 241 242 242 242 242 243 243 243 245 248 248 246 244 244 246 247 246 244 243 244 247 248 248 248 249 250 250 250 250 250 250 251 253 254 255 255 256 256 256 256 257 259 260 262 263 264 265 266 267 267 268 268 269 269 269 268 267 267 268 269 269 269 269 269 270 271 271 271 271 272 272
241 240 239 239 238 237 237 238 238 239 239 239 240 240 241 241 242 241 242 242 242 241 242 244 246 245 243 243 244 245 245 244 242 243 245 247 247 248 249 250 250 251 251 251 251 252 253 253 254 256 257 257 258 258 259 260 261 263 264 265 266 266 267 268 268 269 269 270 269 269 268 268 268 269 270 270 270 270 271 271 271 270 271 272 272
240 239 239 238 237 237 237 237 238 238 239 239 239 239 239 240 241 241 241 241 241 241 240 241 242 243 243 242 242 243 243 242 242 243 244 245 247 248 249 250 251 252 252 253 253 254 254 254 255 256 257 258 259 260 261 262 263 264 265 265 266 267 267 268 269 270 270 270 269 269 269 268 268 269 269 270 270 271 271 271 271 270 270 271 271
239 239 238 237 237 236 236 236 237 237 237 237 238 238 238 239 240 240 240 240 240 241 240 239 239 241 242 241 241 241 240 241 242 242 243 244 246 248 249 251 252 252 253 254 255 255 256 256 256 257 257 258 259 260 262 263 264 265 265 265 265 266 267 268 269 270 270 270 269 270 270 269 269 270 270 270 271 271 271 271 271 271 270 270 270
238 238 237 237 236 235 234 235 236 236 236 236 236 237 237 238 239 239 240 240 240 240 239 238 238 239 240 240 240 240 240 240 241 242 243 244 245 247 249 250 251 252 253 254 255 256 257 258 258 259 259 260 260 261 262 263 264 265 266 266 266 267 267 268 269 269 269 269 269 270 270 270 270 271 271 271 271 271 270 270 270 270 269 269 269
238 237 237 236 235 234 234 235 236 236 235 235 235 235 236 237 238 238 238 238 238 238 238 238 237 237 238 239 239 239 239 239 240 241 243 244 245 246 247 249 250 252 253 255 256 258 258 259 260 261 261 262 262 263 263 264 265 266 266 267 267 267 268 269 269 269 269 269 269 269 270 270 271 272 272 271 270 270 269 269 269 269 269 268 268
237 237 236 235 234 234 234 235 235 235 234 233 233 234 234 235 236 236 236 236 236 236 237 237 237 237 237 238 238 238 238 238 239 240 241 243 244 245 246 247 249 251 253 255 257 258 258 259 260 260 261 262 263 264 264 265 266 266 267 267 268 268 269 269 269 269 268 268 268 269 269 269 270 272 272 271 270 270 270 270 270 269 269 269 268
237 237 236 235 234 234 235 235 234 234 233 232 232 232 232 233 234 234 234 234 234 235 235 236 237 237 236 236 237 237 236 237 238 240 241 242 243 243 244 246 248 250 252 254 257 259 259 259 260 260 261 263 264 265 265 266 266 266 267 267 268 269 269 269 269 269 269 268 269 269 269 269 270 271 271 271 271 270 269 269 269 269 269 269 270
237 236 236 235 234 234 234 234 233 233 232 232 231 231 231 232 232 232 232 232 233 233 234 234 235 236 236 235 235 235 235 236 238 239 240 241 241 242 243 245 247 249 251 253 256 258 260 260 260 261 262 263 264 266 267 267 267 267 267 267 268 268 269 270 270 270 269 269 268 268 269 269 269 270 271 271 270 268 267 267 268 268 268 269 268